Ithaca, NY

6:10 AM EDT on April 19, 2018 (GMT -0400)
Tompkins County

Weather History for KITH - October, 2011

Change the Weather History Date:

Friday, October 7, 2011

  Actual Average Record
Temperature  
Mean Temperature 53 °F -  
Max Temperature 70 °F 62 °F 87 °F (1941)
Min Temperature 36 °F 40 °F 24 °F (1964)
Degree Days  
Heating Degree Days 12    
Growing Degree Days 3 (Base 50)    
Moisture  
Dew Point 40 °F    
Average Humidity 71    
Maximum Humidity 97    
Minimum Humidity 27    
Precipitation  
Precipitation 0.00 in - - ()
Sea Level Pressure  
Sea Level Pressure 30.46 in    
Wind  
Wind Speed 5 mph (East)    
Max Wind Speed 8 mph    
Max Gust Speed -    
Visibility 10 miles    
Events      
Averages and records for this station are not official NWS values.
T = Trace of Precipitation, MM = Missing Value Source: NWS Daily Summary

Daily Weather History Graph

Daily Weather History Graph

Search for Another Location

Airport or City:

Astronomy

Oct. 07, 2011 Rise Set
Actual Time 7:09 AM EDT 6:37 PM EDT
Civil Twilight 6:41 AM EDT 7:05 PM EDT
Nautical Twilight 6:08 AM EDT 7:38 PM EDT
Astronomical Twilight 5:35 AM EDT 8:10 PM EDT
Moon 4:23 PM EDT (10/7) 2:51 AM EDT (10/7)
Length of Visible Light 12h 24m
Length of Day
11h 28m
Waxing Gibbous, 83% of the Moon is Illuminated
Oct 7
Waxing Gibbous
Oct 11
Full
Oct 19
Last Quarter
Oct 26
New
Nov 2
First Quarter

Hourly Weather History & Observations

Time (EDT) Temp. Windchill Dew Point Humidity Pressure Visibility Wind Dir Wind Speed Gust Speed Precip Events Conditions
12:56 AM 38.8 °F 34.6 °F 37.9 °F 97% 30.41 in 10.0 mi East 5.8 mph - N/A   Clear
1:56 AM 38.8 °F 34.6 °F 36.9 °F 93% 30.41 in 10.0 mi East 5.8 mph - N/A   Clear
2:56 AM 37.9 °F 32.7 °F 36.9 °F 96% 30.41 in 10.0 mi ENE 6.9 mph - N/A   Clear
3:56 AM 37.9 °F 32.7 °F 36.0 °F 93% 30.42 in 10.0 mi ENE 6.9 mph - N/A   Clear
4:56 AM 36.9 °F 31.4 °F 34.9 °F 93% 30.43 in 10.0 mi ENE 6.9 mph - N/A   Clear
5:56 AM 36.0 °F 30.3 °F 34.0 °F 93% 30.44 in 10.0 mi ENE 6.9 mph - N/A   Clear
6:29 AM 37.4 °F 31.4 °F 33.8 °F 87% 30.43 in 10.0 mi ENE 8.1 mph - N/A   Clear
6:56 AM 36.9 °F 30.7 °F 34.0 °F 89% 30.46 in 10.0 mi ENE 8.1 mph - N/A   Clear
8:56 AM 43.0 °F 39.5 °F 37.9 °F 82% 30.49 in 10.0 mi East 5.8 mph - N/A   Clear
9:56 AM 50.9 °F - 41.0 °F 69% 30.50 in 10.0 mi Calm Calm - N/A   Clear
10:56 AM 59.0 °F - 41.0 °F 51% 30.49 in 10.0 mi Calm Calm - N/A   Clear
11:56 AM 63.9 °F - 34.9 °F 34% 30.49 in 10.0 mi WSW 3.5 mph - N/A   Clear
12:56 PM 65.8 °F - 32.0 °F 28% 30.48 in 10.0 mi Variable 4.6 mph - N/A   Clear
1:56 PM 68.0 °F - 32.9 °F 27% 30.47 in 10.0 mi Calm Calm - N/A   Clear
2:56 PM 68.9 °F - 36.0 °F 30% 30.45 in 10.0 mi South 3.5 mph - N/A   Clear
3:56 PM 68.0 °F - 37.9 °F 33% 30.45 in 10.0 mi ESE 3.5 mph - N/A   Clear
4:56 PM 70.0 °F - 41.0 °F 35% 30.45 in 10.0 mi Calm Calm - N/A   Clear
5:56 PM 63.9 °F - 50.9 °F 63% 30.45 in 10.0 mi Calm Calm - N/A   Clear
6:56 PM 54.9 °F - 48.9 °F 80% 30.47 in 10.0 mi ENE 3.5 mph - N/A   Clear
7:56 PM 50.9 °F - 48.9 °F 93% 30.48 in 10.0 mi ENE 3.5 mph - N/A   Clear
8:56 PM 50.0 °F - 47.8 °F 92% 30.48 in 10.0 mi East 4.6 mph - N/A   Clear
9:56 PM 50.0 °F - 45.9 °F 86% 30.47 in 10.0 mi ENE 5.8 mph - N/A   Clear
10:56 PM 48.9 °F - 45.0 °F 86% 30.48 in 10.0 mi East 5.8 mph - N/A   Clear
11:56 PM 47.8 °F - 43.9 °F 86% 30.47 in 10.0 mi East 5.8 mph - N/A   Clear